Location: Rowland
(34.5359°N, 79.2929°W)
Time: 02:11:39
(UTC+00:00)

Transit 2A Rocket - Pass Details

Date: 07 October 2022
Orbit: 588 x 912 km, 66.7° (Epoch: 08 December)

Event Time Altitude Azimuth Distance (km) Brightness Sun altitude
Rises 09:11:24 0° 196° (SSW) 2,863 - -26.4°
Reaches altitude 10° 09:13:42 10° 192° (SSW) 1,937 - -26.0°
Exits shadow 09:17:23 52° 146° (SE) 737 5.0 -25.2°
Maximum altitude 09:17:55 57° 114° (ESE) 699 5.0 -25.1°
Drops below altitude 10° 09:22:06 10° 35° (NE) 1,919 7.6 -24.3°
Sets 09:24:22 0° 32° (NNE) 2,835 8.5 -23.8°
